| time (UTC) | temp C | wind direction | speed KPH | gust KPH | rain 1hr cm | rain 24hr cm | rain mn cm | humidity % | barometer mb |
| 20260503035801 | 13 | 166 | 4.8 | 8.0 | 0.00 | 1.27 | 0.03 | 99 | 1009.8 |
| 20260503035300 | 13 | 133 | 4.8 | 8.0 | 0.00 | 1.27 | 0.03 | 99 | 1009.8 |
| 20260503034800 | 13 | 125 | 3.2 | 8.0 | 0.00 | 1.27 | 0.03 | 100 | 1009.8 |
| 20260503034301 | 13 | 41 | 3.2 | 6.4 | 0.00 | 1.27 | 0.03 | 100 | 1009.8 |
| 20260503033801 | 13 | 116 | 1.6 | 6.4 | 0.00 | 1.27 | 0.03 | 100 | 1010.0 |
| 20260503033301 | 13 | 111 | 3.2 | 4.8 | 0.00 | 1.27 | 0.03 | 99 | 1010.2 |
| 20260503032801 | 13 | 145 | 3.2 | 4.8 | 0.00 | 1.27 | 0.03 | 99 | 1010.2 |
| 20260503032300 | 13 | 141 | 3.2 | 6.4 | 0.00 | 1.27 | 0.03 | 99 | 1010.4 |
| 20260503031801 | 13 | 134 | 3.2 | 6.4 | 0.00 | 1.27 | 0.03 | 100 | 1010.5 |
| 20260503031301 | 13 | 115 | 1.6 | 4.8 | 0.00 | 1.27 | 0.03 | 100 | 1010.4 |
| 20260503031044 | 13 | 147 | 1.6 | 4.8 | 0.00 | 1.27 | 0.03 | 99 | 1010.7 |
| 20260503030300 | 13 | 141 | 3.2 | 4.8 | 0.00 | 1.27 | 0.03 | 100 | 1010.8 |
| 20260503025759 | 13 | 146 | 3.2 | 4.8 | 0.00 | 1.27 | 0.03 | 100 | 1010.9 |
| 20260503025301 | 13 | 128 | 3.2 | 6.4 | 0.00 | 1.27 | 0.03 | 99 | 1010.9 |
| 20260503024759 | 13 | 150 | 3.2 | 9.7 | 0.00 | 1.27 | 0.03 | 99 | 1010.9 |
| 20260503024541 | 13 | 200 | 3.2 | 9.7 | 0.00 | 1.27 | 0.03 | 99 | 1011.0 |
| 20260503023758 | 13 | 209 | 3.2 | 6.4 | 0.00 | 1.27 | 0.03 | 99 | 1011.2 |
| 20260503023258 | 13 | 0 | 1.6 | 4.8 | 0.00 | 1.27 | 0.03 | 99 | 1011.1 |
| 20260503023117 | 13 | 181 | 3.2 | 6.4 | 0.00 | 1.27 | 0.03 | 99 | 1011.2 |
| 20260503022812 | 13 | 264 | 3.2 | 6.4 | 0.00 | 1.27 | 0.03 | 99 | 1011.1 |
| 20260503021759 | 13 | 167 | 1.6 | 4.8 | 0.00 | 1.27 | 0.03 | 99 | 1011.1 |
| 20260503021259 | 13 | 0 | 3.2 | 4.8 | 0.00 | 1.27 | 0.03 | 99 | 1011.1 |
| 20260503020759 | 13 | 187 | 3.2 | 4.8 | 0.00 | 1.27 | 0.03 | 99 | 1011.1 |
| 20260503020539 | 13 | 157 | 3.2 | 6.4 | 0.00 | 1.27 | 0.03 | 98 | 1011.1 |
| 20260503015757 | 13 | 145 | 3.2 | 8.0 | 0.00 | 1.27 | 0.03 | 98 | 1011.1 |
| 20260503015259 | 13 | 215 | 4.8 | 8.0 | 0.00 | 1.27 | 0.03 | 98 | 1011.2 |
| 20260503014754 | 13 | 167 | 4.8 | 11.3 | 0.00 | 1.27 | 0.03 | 98 | 1011.1 |
| 20260503014254 | 13 | 165 | 6.4 | 11.3 | 0.00 | 1.27 | 0.03 | 99 | 1011.1 |
| 20260503013754 | 13 | 130 | 6.4 | 12.9 | 0.00 | 1.27 | 0.03 | 99 | 1010.9 |
| 20260503013254 | 13 | 122 | 6.4 | 12.9 | 0.00 | 1.27 | 0.03 | 98 | 1010.9 |
| 20260503012754 | 13 | 129 | 4.8 | 12.9 | 0.00 | 1.27 | 0.03 | 99 | 1010.9 |
| 20260503012254 | 13 | 153 | 3.2 | 6.4 | 0.00 | 1.27 | 0.03 | 99 | 1010.9 |
| 20260503011754 | 13 | 138 | 3.2 | 6.4 | 0.00 | 1.27 | 0.03 | 99 | 1011.0 |
| 20260503011254 | 13 | 153 | 3.2 | 6.4 | 0.00 | 1.27 | 0.03 | 99 | 1011.0 |
| 20260503010754 | 13 | 161 | 3.2 | 8.0 | 0.00 | 1.27 | 0.03 | 99 | 1010.9 |
| 20260503010301 | 13 | 188 | 3.2 | 8.0 | 0.00 | 1.27 | 0.03 | 99 | 1010.9 |
| 20260503005758 | 13 | 116 | 3.2 | 8.0 | 0.00 | 1.27 | 0.03 | 99 | 1011.0 |
| 20260503005614 | 13 | 158 | 3.2 | 8.0 | 0.00 | 1.27 | 0.03 | 99 | 1011.1 |
| 20260503005317 | 13 | 118 | 3.2 | 8.0 | 0.00 | 1.27 | 0.03 | 99 | 1011.0 |
| 20260503004527 | 13 | 136 | 3.2 | 8.0 | 0.00 | 1.27 | 0.03 | 99 | 1011.0 |
| 20260503004039 | 13 | 42 | 3.2 | 6.4 | 0.00 | 1.27 | 0.03 | 98 | 1011.1 |
| 20260503003252 | 13 | 45 | 3.2 | 8.0 | 0.00 | 1.27 | 0.03 | 98 | 1011.1 |
| 20260503002748 | 13 | 43 | 3.2 | 8.0 | 0.00 | 1.27 | 0.03 | 98 | 1011.2 |
| 20260503002250 | 13 | 130 | 3.2 | 11.3 | 0.00 | 1.27 | 0.03 | 98 | 1011.2 |
| 20260503001747 | 13 | 14 | 4.8 | 11.3 | 0.00 | 1.27 | 0.03 | 97 | 1011.2 |
| 20260503001524 | 13 | 122 | 4.8 | 9.7 | 0.00 | 1.27 | 0.03 | 97 | 1011.2 |
| 20260503000745 | 13 | 114 | 4.8 | 9.7 | 0.00 | 1.27 | 0.03 | 98 | 1011.2 |
| 20260503000245 | 13 | 124 | 3.2 | 9.7 | 0.00 | 1.27 | 0.03 | 98 | 1011.4 |
| 20260502235743 | 13 | 134 | 3.2 | 9.7 | 0.00 | 1.27 | 0.03 | 97 | 1011.5 |
| 20260502235243 | 13 | 97 | 3.2 | 8.0 | 0.00 | 1.27 | 0.03 | 98 | 1011.5 |
| 20260502234743 | 13 | 112 | 3.2 | 8.0 | 0.00 | 1.27 | 0.03 | 98 | 1011.7 |
| 20260502234243 | 13 | 162 | 3.2 | 8.0 | 0.00 | 1.27 | 0.03 | 98 | 1011.7 |
| 20260502233740 | 13 | 73 | 3.2 | 6.4 | 0.00 | 1.27 | 0.03 | 98 | 1011.9 |
| 20260502233240 | 13 | 148 | 3.2 | 9.7 | 0.00 | 1.27 | 0.03 | 98 | 1011.9 |
| 20260502232741 | 13 | 33 | 3.2 | 9.7 | 0.00 | 1.27 | 0.03 | 98 | 1011.8 |
| 20260502232241 | 13 | 119 | 4.8 | 9.7 | 0.00 | 1.27 | 0.03 | 98 | 1011.9 |
| 20260502231742 | 13 | 137 | 4.8 | 9.7 | 0.00 | 1.27 | 0.03 | 98 | 1011.8 |
| 20260502231242 | 13 | 95 | 3.2 | 9.7 | 0.00 | 1.27 | 0.03 | 98 | 1011.8 |
| 20260502230743 | 13 | 149 | 3.2 | 9.7 | 0.00 | 1.27 | 0.03 | 98 | 1011.9 |
| 20260502230534 | 13 | 339 | 3.2 | 9.7 | 0.00 | 1.27 | 0.03 | 97 | 1011.8 |
| 20260502225741 | 13 | 165 | 3.2 | 9.7 | 0.03 | 1.27 | 0.03 | 98 | 1012.0 |
| 20260502225242 | 13 | 83 | 3.2 | 9.7 | 0.10 | 1.27 | 0.03 | 98 | 1012.0 |
| 20260502224741 | 13 | 68 | 3.2 | 9.7 | 0.18 | 1.27 | 0.03 | 98 | 1012.1 |
| 20260502224238 | 13 | 86 | 3.2 | 9.7 | 0.18 | 1.27 | 0.03 | 98 | 1012.1 |
| 20260502223736 | 13 | 140 | 4.8 | 11.3 | 0.23 | 1.27 | 0.03 | 99 | 1012.2 |
| 20260502223232 | 13 | 116 | 6.4 | 14.5 | 0.25 | 1.27 | 0.03 | 98 | 1012.1 |
| 20260502222730 | 13 | 58 | 4.8 | 14.5 | 0.33 | 1.27 | 0.03 | 98 | 1012.1 |
| 20260502222229 | 13 | 89 | 3.2 | 6.4 | 0.48 | 1.27 | 0.03 | 99 | 1012.2 |
| 20260502221730 | 13 | 121 | 3.2 | 11.3 | 0.61 | 1.27 | 0.03 | 99 | 1012.2 |
| 20260502221521 | 13 | 77 | 4.8 | 11.3 | 0.79 | 1.27 | 0.03 | 99 | 1012.3 |
| 20260502220730 | 13 | 120 | 6.4 | 20.9 | 1.09 | 1.27 | 0.03 | 99 | 1012.4 |
| 20260502220507 | 13 | 84 | 11.3 | 20.9 | 1.27 | 1.27 | 0.00 | 99 | 1012.5 |
| 20260502215729 | 13 | 34 | 14.5 | 20.9 | 1.24 | 1.24 | 1.24 | 99 | 1012.2 |
| 20260502215229 | 13 | 28 | 12.9 | 20.9 | 1.17 | 1.17 | 1.17 | 99 | 1012.1 |
| 20260502215006 | 13 | 25 | 9.7 | 17.7 | 1.12 | 1.12 | 1.09 | 99 | 1012.6 |
| 20260502214228 | 13 | 29 | 8.0 | 11.3 | 1.09 | 1.09 | 1.09 | 99 | 1013.1 |
| 20260502213729 | 13 | 23 | 6.4 | 11.3 | 1.07 | 1.07 | 1.07 | 98 | 1013.4 |
| 20260502213230 | 13 | 20 | 4.8 | 9.7 | 1.02 | 1.02 | 0.99 | 96 | 1013.7 |
| 20260502212730 | 13 | 0 | 3.2 | 8.0 | 0.94 | 0.94 | 0.91 | 96 | 1014.1 |
| 20260502212229 | 13 | 267 | 8.0 | 24.1 | 0.81 | 0.81 | 0.79 | 95 | 1014.0 |
| 20260502211728 | 14 | 265 | 11.3 | 24.1 | 0.66 | 0.66 | 0.64 | 93 | 1014.1 |
| 20260502211228 | 15 | 267 | 12.9 | 27.4 | 0.48 | 0.48 | 0.41 | 86 | 1014.5 |
| 20260502211019 | 15 | 232 | 12.9 | 27.4 | 0.18 | 0.18 | 0.10 | 81 | 1014.2 |
| 20260502210228 | 16 | 210 | 8.0 | 20.9 | 0.00 | 0.00 | 0.00 | 71 | 1014.0 |
| 20260502210007 | 15 | 107 | 8.0 | 12.9 | 0.00 | 0.00 | 0.00 | 67 | 1013.9 |
| 20260502205228 | 15 | 3 | 9.7 | 12.9 | 0.00 | 0.00 | 0.00 | 69 | 1012.4 |
| 20260502204728 | 15 | 4 | 9.7 | 12.9 | 0.00 | 0.00 | 0.00 | 69 | 1012.2 |
| 20260502204225 | 15 | 16 | 9.7 | 12.9 | 0.00 | 0.00 | 0.00 | 70 | 1012.3 |
| 20260502203727 | 15 | 19 | 9.7 | 14.5 | 0.00 | 0.00 | 0.00 | 70 | 1012.4 |
| 20260502203228 | 15 | 15 | 12.9 | 14.5 | 0.00 | 0.00 | 0.00 | 71 | 1012.5 |
| 20260502202725 | 15 | 14 | 12.9 | 14.5 | 0.00 | 0.00 | 0.00 | 69 | 1012.5 |
| 20260502202226 | 15 | 11 | 9.7 | 14.5 | 0.00 | 0.00 | 0.00 | 70 | 1012.5 |
| 20260502202015 | 15 | 4 | 9.7 | 12.9 | 0.00 | 0.00 | 0.00 | 71 | 1012.7 |
| 20260502201226 | 15 | 17 | 9.7 | 11.3 | 0.00 | 0.00 | 0.00 | 71 | 1012.7 |
| 20260502200726 | 15 | 12 | 8.0 | 11.3 | 0.00 | 0.00 | 0.00 | 71 | 1012.8 |
| 20260502200225 | 16 | 15 | 8.0 | 11.3 | 0.00 | 0.00 | 0.00 | 69 | 1012.9 |
| 20260502200022 | 16 | 6 | 8.0 | 9.7 | 0.00 | 0.00 | 0.00 | 69 | 1012.9 |
| 20260502195504 | 16 | 7 | 6.4 | 9.7 | 0.00 | 0.00 | 0.00 | 68 | 1013.0 |
| 20260502195004 | 16 | 19 | 6.4 | 9.7 | 0.00 | 0.00 | 0.00 | 69 | 1013.0 |
| 20260502194226 | 16 | 37 | 6.4 | 9.7 | 0.00 | 0.00 | 0.00 | 67 | 1013.0 |
| 20260502193726 | 16 | 18 | 4.8 | 8.0 | 0.00 | 0.00 | 0.00 | 68 | 1013.1 |
| 20260502193459 | 16 | 34 | 6.4 | 8.0 | 0.00 | 0.00 | 0.00 | 66 | 1013.1 |
| 20260502192721 | 16 | 26 | 6.4 | 8.0 | 0.00 | 0.00 | 0.00 | 66 | 1013.1 |
| 20260502192220 | 16 | 24 | 6.4 | 6.4 | 0.00 | 0.00 | 0.00 | 65 | 1013.1 |
| 20260502191718 | 16 | 358 | 6.4 | 8.0 | 0.00 | 0.00 | 0.00 | 62 | 1013.1 |
| 20260502191217 | 16 | 350 | 6.4 | 9.7 | 0.00 | 0.00 | 0.00 | 62 | 1013.2 |
| 20260502190718 | 16 | 351 | 6.4 | 9.7 | 0.00 | 0.00 | 0.00 | 63 | 1013.2 |
| 20260502190218 | 16 | 1 | 6.4 | 9.7 | 0.00 | 0.00 | 0.00 | 63 | 1013.2 |
| 20260502185720 | 16 | 355 | 6.4 | 9.7 | 0.00 | 0.00 | 0.00 | 62 | 1013.2 |
| 20260502185220 | 16 | 4 | 6.4 | 11.3 | 0.00 | 0.00 | 0.00 | 63 | 1013.3 |
| 20260502184719 | 17 | 3 | 8.0 | 12.9 | 0.00 | 0.00 | 0.00 | 60 | 1013.3 |
| 20260502184219 | 17 | 5 | 9.7 | 12.9 | 0.00 | 0.00 | 0.00 | 60 | 1013.2 |
| 20260502183719 | 17 | 329 | 8.0 | 12.9 | 0.00 | 0.00 | 0.00 | 62 | 1013.2 |
| 20260502183219 | 17 | 355 | 8.0 | 12.9 | 0.00 | 0.00 | 0.00 | 61 | 1013.3 |
| 20260502182719 | 17 | 354 | 8.0 | 14.5 | 0.00 | 0.00 | 0.00 | 63 | 1013.4 |
| 20260502182219 | 18 | 7 | 9.7 | 14.5 | 0.00 | 0.00 | 0.00 | 61 | 1013.4 |
| 20260502181719 | 18 | 353 | 9.7 | 16.1 | 0.00 | 0.00 | 0.00 | 60 | 1013.3 |
| 20260502181213 | 18 | 338 | 9.7 | 16.1 | 0.00 | 0.00 | 0.00 | 60 | 1013.3 |
| 20260502180713 | 18 | 9 | 9.7 | 16.1 | 0.00 | 0.00 | 0.00 | 61 | 1013.3 |
| 20260502180212 | 18 | 5 | 9.7 | 16.1 | 0.00 | 0.00 | 0.00 | 59 | 1013.2 |
| 20260502170204 | 20 | 341 | 14.5 | 20.9 | 0.00 | 0.00 | 0.00 | 56 | 1013.7 |
| 20260502164203 | 21 | 322 | 8.0 | 12.9 | 0.00 | 0.00 | 0.00 | 50 | 1014.0 |
| 20260502163704 | 22 | 296 | 8.0 | 14.5 | 0.00 | 0.00 | 0.00 | 49 | 1014.0 |
| 20260502163203 | 21 | 335 | 8.0 | 14.5 | 0.00 | 0.00 | 0.00 | 51 | 1014.1 |
| 20260502162703 | 21 | 339 | 8.0 | 14.5 | 0.00 | 0.00 | 0.00 | 51 | 1014.1 |
| 20260502162201 | 21 | 326 | 8.0 | 12.9 | 0.00 | 0.00 | 0.00 | 51 | 1014.2 |
| 20260502161942 | 21 | 290 | 6.4 | 12.9 | 0.00 | 0.00 | 0.00 | 50 | 1014.3 |
| 20260502161204 | 22 | 331 | 6.4 | 9.7 | 0.00 | 0.00 | 0.00 | 48 | 1014.4 |
| 20260502160702 | 22 | 295 | 6.4 | 9.7 | 0.00 | 0.00 | 0.00 | 47 | 1014.5 |
| 20260502160201 | 22 | 317 | 6.4 | 11.3 | 0.00 | 0.00 | 0.00 | 49 | 1014.5 |
| 20260502152200 | 22 | 214 | 6.4 | 14.5 | 0.00 | 0.00 | 0.00 | 48 | 1014.9 |
| 20260502151701 | 23 | 359 | 4.8 | 9.7 | 0.00 | 0.00 | 0.00 | 46 | 1015.0 |
| 20260502151200 | 22 | 171 | 6.4 | 12.9 | 0.00 | 0.00 | 0.00 | 47 | 1015.0 |
| 20260502150702 | 21 | 170 | 8.0 | 12.9 | 0.00 | 0.00 | 0.00 | 50 | 1015.1 |
| 20260502150157 | 22 | 315 | 6.4 | 14.5 | 0.00 | 0.00 | 0.00 | 52 | 1015.1 |
| 20260502130650 | 22 | 194 | 6.4 | 12.9 | 0.00 | 0.00 | 0.00 | 59 | 1016.5 |
| 20260502130145 | 22 | 279 | 8.0 | 16.1 | 0.00 | 0.00 | 0.00 | 59 | 1016.5 |
| 20260502123642 | 21 | 184 | 6.4 | 17.7 | 0.00 | 0.00 | 0.00 | 58 | 1016.6 |
| 20260502123141 | 21 | 184 | 6.4 | 17.7 | 0.00 | 0.00 | 0.00 | 61 | 1016.7 |
| 20260502122641 | 21 | 275 | 6.4 | 12.9 | 0.00 | 0.00 | 0.00 | 61 | 1016.8 |
| 20260502122142 | 21 | 293 | 6.4 | 17.7 | 0.00 | 0.00 | 0.00 | 61 | 1016.9 |
| 20260502121642 | 21 | 255 | 8.0 | 17.7 | 0.00 | 0.00 | 0.00 | 62 | 1016.9 |
| 20260502121142 | 21 | 211 | 6.4 | 17.7 | 0.00 | 0.00 | 0.00 | 63 | 1016.9 |
| 20260502120643 | 21 | 143 | 6.4 | 14.5 | 0.00 | 0.00 | 0.00 | 64 | 1017.0 |
| 20260502120142 | 21 | 246 | 6.4 | 14.5 | 0.00 | 0.00 | 0.00 | 63 | 1017.0 |
| 20260502115925 | 21 | 296 | 8.0 | 17.7 | 0.00 | 0.00 | 0.00 | 63 | 1017.0 |
| 20260502115217 | 21 | 235 | 9.7 | 17.7 | 0.00 | 0.00 | 0.00 | 61 | 1017.1 |
| 20260502115210 | 21 | 219 | 8.0 | 17.7 | 0.00 | 0.00 | 0.00 | 63 | 1017.0 |
| 20260502114146 | 21 | 225 | 8.0 | 17.7 | 0.00 | 0.00 | 0.00 | 61 | 1017.0 |
| 20260502113642 | 21 | 172 | 6.4 | 12.9 | 0.00 | 0.00 | 0.00 | 61 | 1017.2 |
| 20260502113410 | 21 | 218 | 6.4 | 17.7 | 0.00 | 0.00 | 0.00 | 62 | 1017.2 |
| 20260502112641 | 21 | 141 | 6.4 | 17.7 | 0.00 | 0.00 | 0.00 | 63 | 1017.2 |
| 20260502112137 | 21 | 199 | 6.4 | 14.5 | 0.00 | 0.00 | 0.00 | 63 | 1017.3 |
| 20260502111908 | 21 | 193 | 6.4 | 14.5 | 0.00 | 0.00 | 0.00 | 63 | 1017.3 |
| 20260502111137 | 20 | 274 | 8.0 | 14.5 | 0.00 | 0.00 | 0.00 | 63 | 1017.3 |
| 20260502110638 | 20 | 209 | 9.7 | 17.7 | 0.00 | 0.00 | 0.00 | 65 | 1017.3 |
| 20260502110134 | 20 | 175 | 8.0 | 17.7 | 0.00 | 0.00 | 0.00 | 66 | 1017.4 |
| 20260502105635 | 20 | 161 | 8.0 | 22.5 | 0.00 | 0.00 | 0.00 | 66 | 1017.4 |
| 20260502105135 | 20 | 216 | 9.7 | 22.5 | 0.00 | 0.00 | 0.00 | 68 | 1017.4 |
| 20260502104635 | 20 | 213 | 6.4 | 14.5 | 0.00 | 0.00 | 0.00 | 67 | 1017.5 |
| 20260502104134 | 20 | 219 | 8.0 | 14.5 | 0.00 | 0.00 | 0.00 | 66 | 1017.5 |
| 20260502103634 | 20 | 149 | 8.0 | 14.5 | 0.00 | 0.00 | 0.00 | 67 | 1017.4 |
| 20260502103135 | 20 | 133 | 6.4 | 14.5 | 0.00 | 0.00 | 0.00 | 65 | 1017.6 |
| 20260502102911 | 20 | 183 | 6.4 | 14.5 | 0.00 | 0.00 | 0.00 | 63 | 1017.5 |
| 20260502102146 | 20 | 181 | 8.0 | 17.7 | 0.00 | 0.00 | 0.00 | 62 | 1017.5 |
| 20260502102139 | 20 | 208 | 8.0 | 16.1 | 0.00 | 0.00 | 0.00 | 63 | 1017.5 |
| 20260502101135 | 20 | 232 | 8.0 | 17.7 | 0.00 | 0.00 | 0.00 | 63 | 1017.6 |
| 20260502100635 | 20 | 179 | 6.4 | 19.3 | 0.00 | 0.00 | 0.00 | 63 | 1017.6 |
| 20260502100135 | 20 | 205 | 8.0 | 19.3 | 0.00 | 0.00 | 0.00 | 62 | 1017.7 |
| 20260502091131 | 19 | 289 | 4.8 | 11.3 | 0.00 | 0.00 | 0.00 | 68 | 1017.9 |
| 20260502090631 | 18 | 172 | 6.4 | 12.9 | 0.00 | 0.00 | 0.00 | 70 | 1017.9 |
| 20260502090423 | 17 | 220 | 6.4 | 16.1 | 0.00 | 0.00 | 0.00 | 73 | 1018.0 |
| 20260502090144 | 18 | 189 | 6.4 | 12.9 | 0.00 | 0.00 | 0.00 | 71 | 1017.9 |
| 20260502071351 | 14 | 20 | 3.2 | 6.4 | 0.00 | 0.00 | 0.00 | 73 | 1017.5 |
| 20260502070617 | 14 | 23 | 3.2 | 8.0 | 0.00 | 0.00 | 0.00 | 72 | 1017.6 |
| 20260502070116 | 14 | 220 | 3.2 | 8.0 | 0.00 | 0.00 | 0.00 | 72 | 1017.6 |
| 20260502065614 | 14 | 346 | 1.6 | 6.4 | 0.00 | 0.00 | 0.00 | 71 | 1017.6 |
| 20260502065114 | 14 | 229 | 3.2 | 6.4 | 0.00 | 0.00 | 0.00 | 70 | 1017.8 |
| 20260502064614 | 14 | 245 | 3.2 | 8.0 | 0.00 | 0.00 | 0.00 | 68 | 1017.9 |
| 20260502064116 | 13 | 179 | 4.8 | 9.7 | 0.00 | 0.00 | 0.00 | 65 | 1017.9 |
| 20260502063612 | 13 | 218 | 4.8 | 9.7 | 0.00 | 0.13 | 0.00 | 62 | 1018.0 |
| 20260502063349 | 13 | 163 | 4.8 | 9.7 | 0.00 | 0.15 | 0.00 | 61 | 1017.9 |
| 20260502062612 | 13 | 161 | 3.2 | 9.7 | 0.00 | 0.23 | 0.00 | 60 | 1018.0 |
| 20260502062108 | 13 | 160 | 3.2 | 8.0 | 0.00 | 0.43 | 0.00 | 59 | 1017.9 |
| 20260502061615 | 13 | 201 | 3.2 | 8.0 | 0.00 | 0.43 | 0.00 | 59 | 1017.9 |
| 20260502061608 | 13 | 174 | 3.2 | 8.0 | 0.00 | 0.43 | 0.00 | 59 | 1017.9 |
| 20260502060608 | 13 | 173 | 3.2 | 6.4 | 0.00 | 0.43 | 0.00 | 60 | 1017.9 |
| 20260502060110 | 13 | 192 | 3.2 | 6.4 | 0.00 | 0.43 | 0.00 | 60 | 1017.8 |
| 20260502055902 | 13 | 172 | 3.2 | 4.8 | 0.00 | 0.43 | 0.00 | 59 | 1017.8 |
| 20260502055405 | 13 | 183 | 3.2 | 6.4 | 0.00 | 0.43 | 0.00 | 60 | 1017.8 |
| 20260502054630 | 13 | 170 | 3.2 | 8.0 | 0.00 | 0.43 | 0.00 | 59 | 1017.9 |
| 20260502054622 | 13 | 169 | 3.2 | 6.4 | 0.00 | 0.43 | 0.00 | 59 | 1017.9 |
| 20260502053610 | 13 | 162 | 3.2 | 8.0 | 0.00 | 0.43 | 0.00 | 59 | 1017.8 |
| 20260502053109 | 13 | 175 | 3.2 | 8.0 | 0.00 | 0.43 | 0.00 | 59 | 1017.9 |
| 20260502052609 | 13 | 191 | 3.2 | 6.4 | 0.00 | 0.43 | 0.00 | 59 | 1017.8 |
| 20260502052350 | 13 | 188 | 3.2 | 6.4 | 0.00 | 0.43 | 0.00 | 59 | 1017.6 |
| 20260502051851 | 12 | 196 | 3.2 | 8.0 | 0.00 | 0.43 | 0.00 | 59 | 1017.7 |
| 20260502051404 | 12 | 191 | 3.2 | 8.0 | 0.00 | 0.43 | 0.00 | 60 | 1017.7 |
| 20260502050607 | 12 | 192 | 3.2 | 9.7 | 0.00 | 0.43 | 0.00 | 59 | 1017.7 |
| 20260502050106 | 12 | 322 | 3.2 | 9.7 | 0.00 | 0.43 | 0.00 | 58 | 1017.6 |
| 20260502045607 | 12 | 230 | 4.8 | 9.7 | 0.00 | 0.43 | 0.00 | 58 | 1017.7 |
| 20260502045104 | 12 | 165 | 4.8 | 11.3 | 0.00 | 0.43 | 0.00 | 57 | 1017.7 |
| 20260502044604 | 13 | 163 | 4.8 | 11.3 | 0.00 | 0.43 | 0.00 | 56 | 1017.7 |
| 20260502044414 | 12 | 193 | 3.2 | 8.0 | 0.00 | 0.43 | 0.00 | 55 | 1017.5 |
| 20260502044124 | 12 | 158 | 3.2 | 6.4 | 0.00 | 0.43 | 0.00 | 55 | 1017.5 |
| 20260502043104 | 12 | 156 | 4.8 | 8.0 | 0.00 | 0.43 | 0.00 | 56 | 1017.5 |
| 20260502042604 | 12 | 135 | 3.2 | 8.0 | 0.00 | 0.43 | 0.00 | 58 | 1017.6 |
| 20260502042104 | 12 | 153 | 3.2 | 4.8 | 0.00 | 0.43 | 0.00 | 57 | 1017.6 |
| 20260502041604 | 12 | 144 | 3.2 | 6.4 | 0.00 | 0.43 | 0.00 | 57 | 1017.5 |
| 20260502041104 | 12 | 0 | 3.2 | 6.4 | 0.00 | 0.43 | 0.00 | 57 | 1017.6 |
| 20260502040603 | 12 | 194 | 4.8 | 9.7 | 0.00 | 0.43 | 0.00 | 56 | 1017.6 |
| 20260502040405 | 12 | 181 | 4.8 | 9.7 | 0.00 | 0.43 | 0.00 | 57 | 1017.6 |